LEMUR 2 CUBECHEESE

Last updated on Sept. 30, 2016, 9:45 a.m. UTC

1 41597U 16019D   16274.21007963  .00070236  00000-0  67074-3 0  9996
2 41597  51.6377 248.5056 0006466  57.7144 302.4477 15.66066551 15742

Satellite is not in orbit.